Regional Weather Roundup
Issued by NWS

Home | Current Version | Previous Version | Graphics & Text | Print | Product List | Glossary On
Versions: 1 2 3 4 5 6 7 8 9 10 11 12 13 14 15 16 17 18 19 20 21 22 23 24 25 26 27 28 29 30 31 32 33 34 35 36 37 38 39 40 41 42 43 44 45 46 47 48 49 50
000
ASUS43 KMKX 220111
RWRWI

WISCONSIN REGIONAL WEATHER ROUNDUP
NATIONAL WEATHER SERVICE MILWAUKEE/SULLIVAN WI
800 PM CDT FRI JUL 21 2017

NOTE: "FAIR" INDICATES FEW OR NO CLOUDS BELOW 12,000 FEET WITH NO
SIGNIFICANT WEATHER AND/OR OBSTRUCTIONS TO VISIBILITY.

WIZ001-002-006>008-014>016-023>028-220200-
NORTHWEST WISCONSIN

CITY           SKY/WX    TMP DP  RH WIND       PRES   REMARKS
SUPERIOR ARPT  NOT AVBL
ASHLAND        PTCLDY    66  60  81 N6        29.87R
HAYWARD        CLOUDY    75  66  73 S8        29.87R
SIREN          PTCLDY    75  68  79 CALM      29.86S
CUMBERLAND     CLOUDY    72  68  88 CALM      29.87R
RICE LAKE      CLOUDY    75  66  74 SE5       29.88R
CHETEK         CLOUDY    75  68  79 MISG      29.88R
LADYSMITH      MOCLDY    75  66  75 S5        29.90R
EAU CLAIRE     MOCLDY    75  66  73 SE8       29.86R
MENOMONIE      PTCLDY    76  67  75 SE3       29.86R
NEW RICHMOND   PTCLDY    75  65  70 CALM      29.85R
OSCEOLA        CLOUDY    77  69  75 SE5       29.87R
$$

WIZ003>005-009-010-017-018-220200-
NORTH CENTRAL WISCONSIN

CITY           SKY/WX    TMP DP  RH WIND       PRES   REMARKS
MANITOWISH WTR CLOUDY    75  69  81 S6        29.90R
ARBOR VITAE    PTCLDY    77  69  76 S3        29.90R
WOODRUFF       PTCLDY    77  69  76 S3        29.90R
RHINELANDER    CLOUDY    74  69  85 S7        29.91S
EAGLE RIVER    PTCLDY    75  62  64 S3        29.90R
LAND O LAKES   CLEAR     77  61  58 S3        29.91S
PHILLIPS       PTCLDY    74  67  76 SW9       29.89R
TOMAHAWK         N/A     72  65  77 CALM      29.91R
MEDFORD        CLOUDY    73  65  75 S5        29.90R
MERRILL        MOCLDY    76  67  71 W5        29.88F
$$

WIZ029-030-035-036-043>047-220200-
CENTRAL WISCONSIN

CITY           SKY/WX    TMP DP  RH WIND       PRES   REMARKS
WAUSAU         CLOUDY    70  63  78 S12       29.89R
MOSINEE        DRIZZLE   66  66 100 E5        29.90S
MARSHFIELD     PTCLDY    73  65  75 S7        29.88S
STEVENS POINT  CLOUDY    71  70  97 SE3       29.89S
WAUPACA        CLOUDY    73  61  65 SE6       29.89S
WAUTOMA        CLOUDY    69  65  86 SE6       29.89S
WISC RAPIDS    CLOUDY    73  70  90 SE5       29.89R
CAMP DOUGLAS   MOCLDY    70  70 100 E5        29.86S
$$

WIZ011>013-019>022-031-037>040-048>050-220200-
NORTHEAST WISCONSIN

CITY           SKY/WX    TMP DP  RH WIND       PRES   REMARKS
ANTIGO         CLOUDY    73  67  82 S3        29.92S
SHAWANO        CLOUDY    77  62  59 CALM      29.88F
OCONTO         CLOUDY    76  69  79 CALM      29.87F
STURGEON BAY     N/A     76  70  82 S5        29.87F
GREEN BAY      CLOUDY    75  64  68 S8        29.88F
MANITOWOC      CLOUDY    73  64  73 S6        29.89F
APPLETON       CLOUDY    73  55  53 S8        29.88F
CLINTONVILLE   CLOUDY    73  61  64 CALM      29.87F
OSHKOSH        CLOUDY    71  60  68 S6        29.88F
$$

WIZ032>034-041-042-053>061-220200-
SOUTHWEST WISCONSIN

CITY           SKY/WX    TMP DP  RH WIND       PRES   REMARKS
LA CROSSE      CLOUDY    74  69  85 SE6       29.83S
SPARTA         CLOUDY    68  67  96 CALM      29.85F
VIROQUA        CLOUDY    70  70 100 SE14      29.85S
BOSCOBEL       CLOUDY    72  70  93 CALM      29.84F
PRAIRIE DU CHI CLOUDY    71  70  96 SE6       29.82F
PLATTEVILLE      N/A     72  72 100 E21G26    29.85R
$$

WIZ056-057-062-063-064-067-068-220200-
SOUTH CENTRAL WISCONSIN

CITY           SKY/WX    TMP DP  RH WIND       PRES   REMARKS
REEDSBURG      LGT RAIN  69  69 100 E5        29.85F
BARABOO/DELLS  CLOUDY    70  68  94 SE9       29.86F
LONE ROCK      CLOUDY    72  69  90 E3        29.87S
MINERAL POINT  HVY RAIN  72  72 100 SE7       29.90R
MADISON        TSTM      71  70  96 NW13G25   29.92R VSB 1/2
MIDDLETON      CLOUDY    72  72 100 S10G24    29.90R
WATERTOWN      RAIN      69  69 100 N5        29.91R
MONROE         RAIN      72  70  94 S7        29.89R
JANESVILLE     CLOUDY    73  73 100 E12       29.86F
$$

WIZ051-052-058>065-066-070>072-220200-
SOUTHEAST WISCONSIN

CITY           SKY/WX    TMP DP  RH WIND       PRES   REMARKS
MILWAUKEE      LGT RAIN  72  68  87 E9        29.88F
WAUKESHA       LGT RAIN  68  64  88 E3        29.92F
MILWAUKEE/TIMM LGT RAIN  72  66  83 E5        29.90F
RACINE         CLOUDY    71  68  90 E7        29.90F FOG
KENOSHA        LGT RAIN  72  69  90 E9        29.88F
FOND DU LAC    CLOUDY    69  60  73 S9        29.88F
SHEBOYGAN      CLOUDY    73  69  87 S6        29.89F
WEST BEND      RAIN      68  68 100 S5        29.91S
JUNEAU         RAIN      68  66  94 SE8       29.91S
$$

LSZ147-162-220200-
LAKE SUPERIOR

STATION/POSITION TIME  TEMP    WIND        PRES    WAVE
                       AIR SEA DIR/SP/G            HT/PER
                 (UTC) (F)     (DEG/KT/KT) (MB)    (FT/S)
W MID LAKE BUOY  2350   56 49  100/ 10/ 10 1011.0F   0
DEVILS ISLAND    0100   61      20/ 10/ 12 1011.8R
PORT WING        2241   64      30/ 16/ 20 1010.2
SAXON HARBOR     0030   70     310/  3/  4 1010.2R
$$

LMZ867-665-643>646-220200-
LAKE MICHIGAN

STATION/POSITION TIME  TEMP    WIND        PRES    WAVE
                       AIR SEA DIR/SP/G            HT/PER
                 (UTC) (F)     (DEG/KT/KT) (MB)    (FT/S)
CHAMBERS ISLAND  0030   78     150/  3/  6 1011.2S
S GREEN BAY BUOY 0100   77 76  200/  6/  6 1011.5
N MID LAKE BUOY  0050   69 67  170/ 10/ 12 1012.6F   0
NORTHPORT PIER   0040   73     150/  7/ 10 1011.5F
KEWAUNEE LAKESHO 0048   72     190/  7/  9 1011.4F
SHEBOYGAN LAKESH 0100   70     180/ 14/ 15 1011.4F
PORT WASHINGTON  0040   71      CALM  /  3 1012.9F
ATWATER BUOY     2309   71 69  150/  6/  6 1014.0
MILWAUKEE LAKESH 0050   70      50/  5/  5   N/A
S MID LAKE BUOY  2350   73 72   60/  6/  8 1013.2R   0
KENOSHA   LAKESH 0100   72      70/  9/ 10 1011.2
$$

TC  - TEMPERATURE IN CELSIUS
VSB - VISIBILITY IN STATUTE MILES
WCI - WIND CHILL INDEX
HX  - HEAT INDEX




USA.gov is the U.S. government's official web portal to all federal, state and local government web resources and services.